Location: Central Falls
(41.8900°N, 71.3929°W)
Time: 12:48:20
(UTC+00:00)

A-11 Canister half - Pass Details

Date: 14 December 2023
Orbit: 1512 x 1687 km, 47.2° (Epoch: 20 February)

Event Time Altitude Azimuth Distance (km) Brightness Sun altitude
Rises 06:29:44 0° 287° (WNW) 4,755 - -60.5°
Reaches altitude 10° 06:32:49 10° 290° (WNW) 3,793 - -60.0°
Maximum altitude 06:42:31 72° 15° (NNE) 1,703 - -58.4°
Exits shadow 06:50:03 20° 96° (E) 3,166 10.8 -57.1°
Drops below altitude 10° 06:52:34 10° 99° (E) 3,920 11.4 -56.7°
Sets 06:55:47 0° 102° (ESE) 4,920 12.1 -56.2°
